Belvidere, Illinois, United States (61008)
Lat: 42.26N, Lon: 88.84W
Wx Zone: ILZ004
Local Info
Past Weather Observations for Saturday, March 21, 2015

NOTE: This archive is for the closest National Weather Service station to Belvidere. Information may differ from the station used for current weather conditions.

Click here for Long-term Archive

Time Weather Temperature Dewpoint Humidity Pressure Winds Precip Visibility
23:54
Clear
30°F / -1°C 25°F / -4°C 80% 30.24 in
(1024 mb)
ENE 3.5 mph
(ENE 6 kph)
- 10SM
22:54
Partly Cloudy
32°F / 0°C 25°F / -4°C 75% 30.24 in
(1024 mb)
E 3.5 mph
(E 6 kph)
- 10SM
21:54
Partly Cloudy
34°F / 1°C 27°F / -3°C 75% 30.24 in
(1024 mb)
E 6.9 mph
(E 11 kph)
- 10SM
20:54
Partly Cloudy
36°F / 2°C 27°F / -3°C 70% 30.24 in
(1024 mb)
ESE 8.1 mph
(ESE 13 kph)
- 10SM
19:54
Partly Cloudy
39°F / 4°C 27°F / -3°C 61% 30.21 in
(1023 mb)
E 10.4 mph
(E 17 kph)
- 10SM
18:54
Partly Cloudy
45°F / 7°C 16°F / -9°C 31% 30.18 in
(1022 mb)
N 10.4 mph
(N 17 kph)
- 10SM
17:54
Partly Cloudy
48°F / 9°C 16°F / -9°C 27% 30.18 in
(1022 mb)
N 12.7 mph
(N 20 kph)
- 10SM
16:54
Partly Cloudy
54°F / 12°C 16°F / -9°C 22% 30.15 in
(1021 mb)
N 9.2 mph
(N 15 kph)
- 10SM
15:54
Partly Cloudy
55°F / 13°C 12°F / -11°C 18% 30.18 in
(1022 mb)
N 11.5 mph
(N 19 kph)
- 10SM
14:54
Partly Cloudy
55°F / 13°C 16°F / -9°C 21% 30.15 in
(1021 mb)
N 11.5 mph
(N 19 kph)
- 10SM
13:54
Partly Cloudy
55°F / 13°C 14°F / -10°C 19% 30.18 in
(1022 mb)
NW 9.2 mph
(NW 15 kph)
- 10SM
12:54
Clear
54°F / 12°C 18°F / -8°C 24% 30.18 in
(1022 mb)
NW 10.4 mph
(NW 17 kph)
- 10SM
11:54
Partly Cloudy
52°F / 11°C 25°F / -4°C 35% 30.18 in
(1022 mb)
NW 12.7 mph
(NW 20 kph)
- 10SM
10:54
Partly Cloudy
50°F / 10°C 27°F / -3°C 40% 30.21 in
(1023 mb)
N 10.4 mph
(N 17 kph)
- 10SM
09:54
Partly Cloudy
48°F / 9°C 30°F / -1°C 50% 30.18 in
(1022 mb)
N 12.7 mph
(N 20 kph)
- 10SM
08:54
Mostly Cloudy
45°F / 7°C 34°F / 1°C 66% 30.15 in
(1021 mb)
N 13.8 mph
(N 22 kph)
- 10SM
07:54
Partly Cloudy
43°F / 6°C 36°F / 2°C 76% 30.15 in
(1021 mb)
N 13.8 mph
(N 22 kph)
- 10SM
06:54
Partly Cloudy
41°F / 5°C 34°F / 1°C 76% 30.12 in
(1020 mb)
N 11.5 mph
(N 19 kph)
- 10SM
05:54
Overcast
39°F / 4°C 34°F / 1°C 81% 30.06 in
(1018 mb)
N 10.4 mph
(N 17 kph)
- 10SM
04:54
Clear
39°F / 4°C 34°F / 1°C 81% 30.04 in
(1017 mb)
NNW 11.5 mph
(NNW 19 kph)
- 10SM
03:54
Clear
39°F / 4°C 36°F / 2°C 87% 29.98 in
(1015 mb)
WNW 11.5 mph
(WNW 19 kph)
- 8SM
02:54
Clear
43°F / 6°C 37°F / 3°C 81% 29.98 in
(1015 mb)
SSW 6.9 mph
(SSW 11 kph)
- 10SM
01:54
Clear
39°F / 4°C 36°F / 2°C 87% 29.98 in
(1015 mb)
SW 9.2 mph
(SW 15 kph)
- 10SM
00:54
Clear
39°F / 4°C 36°F / 2°C 87% 29.98 in
(1015 mb)
SSE 9.2 mph
(SSE 15 kph)
- 10SM
Time Weather Temperature Dewpoint Humidity Pressure Winds Precip Visibility


Weather for websites

WeatherForYou.com, LLC is not responsible for any damages or problems caused by this service. Current weather conditions are obtained from the closest station including government and personal stations which may have varying degrees of accuracy. Weather forecasts are derived from the NOAA NDFD. Like all things, this site belongs to Jesus Christ... He just trusts me to maintain it. If you have any questions or comments email webmaster@weatherforyou.com

Copyright © 2015, WeatherForYou.com LLC. All rights reserved.